Home > Weather > Greensboro > Past weeks

Flag for USA Past Weather in Greensboro, North Carolina, USA — Yesterday and Last 2 Weeks

Now
84 °F

More clouds than sun.


Feels Like: 85 °F
Forecast: 65 / 85 °F
Wind: 5 mph from Northwest

Location: Piedmont Triad International Airport

Current Time: Aug 24, 2016 at 5:48:49 PM

Latest Report: Aug 24, 2016 at 4:54 PM


Visibility: 10 mi

Pressure: 30.19 "Hg

Humidity: 48%

Dew Point: 62 °F

Location of GreensboroLocation

Past Weather in Greensboro — Graph

°F

Greensboro Temperature Yesterday

Maximum temperature yesterday: 85 °F (at 4:54 PM)
Minimum temperature yesterday: 66 °F (at 4:54 AM)
Average temperature yesterday: 76 °F

High & Low Weather Summary for the Past Weeks

 TemperatureHumidityPressure
High92 °F (Aug 14, 2:54 PM)100% (Aug 10, 4:54 AM)30.30 "Hg (Aug 10, 4:54 AM)
Low66 °F (Aug 22, 5:54 AM)40% (Aug 23, 4:54 PM)29.80 "Hg (Aug 21, 3:54 AM)
Average80 °F73%30.08 "Hg
* Reported Aug 9 3:54 PM — Aug 24 3:54 PM, Greensboro, Weather by CustomWeather, © 2016

Note: Actual official high and low records may vary slightly from our data, if they occured in-between our weather recording intervals... More about our weather records

Advertising

Greensboro Weather History for the Previous 24 Hours

Scroll right to see more
 ConditionsComfort  
Time TempWeatherWind HumidityBarometerVisibility
3:54 PM
Wed, Aug 24
85 °FOvercast.5 mph51%30.20 "Hg10 mi
2:54 PM83 °FMore clouds than sun.7 mph53%30.23 "Hg10 mi
1:54 PM83 °FMore clouds than sun.7 mph55%30.24 "Hg10 mi
12:54 PM81 °FMore clouds than sun.6 mph60%30.26 "Hg10 mi
11:54 AM82 °FOvercast.5 mph58%30.27 "Hg10 mi
10:54 AM80 °FOvercast.5 mph60%30.29 "Hg10 mi
9:54 AM77 °FOvercast.7 mph66%30.29 "Hg10 mi
8:54 AM73 °FPartly sunny.8 mph74%30.30 "Hg10 mi
7:54 AM70 °FPartly sunny.6 mph84%30.29 "Hg10 mi
6:54 AM68 °FPassing clouds.6 mph90%30.28 "Hg10 mi
5:54 AM68 °FPassing clouds.7 mph87%30.26 "Hg10 mi
4:54 AM68 °FClear.8 mph87%30.25 "Hg10 mi
3:54 AM68 °FClear.5 mph87%30.24 "Hg10 mi
2:54 AM70 °FClear.7 mph79%30.24 "Hg10 mi
1:54 AM72 °FPassing clouds.9 mph68%30.25 "Hg10 mi
12:54 AM72 °FClear.3 mph68%30.25 "Hg10 mi
11:54 PM
Tue, Aug 23
73 °FPassing clouds.6 mph66%30.26 "Hg10 mi
10:54 PM74 °FPassing clouds.5 mph69%30.26 "Hg10 mi
9:54 PM75 °FPassing clouds.5 mph64%30.25 "Hg10 mi
8:54 PM78 °FScattered clouds.No wind58%30.24 "Hg10 mi
7:54 PM79 °FBroken clouds.6 mph56%30.23 "Hg10 mi
6:54 PM82 °FBroken clouds.7 mph48%30.22 "Hg10 mi
5:54 PM84 °FBroken clouds.8 mph45%30.22 "Hg10 mi
Weather by CustomWeather, © 2016

See weather overviewHow to use our weather pages